Middlebury State AP, Middlebu, VT

2:16 PM EST on December 14, 2017 (GMT -0500)
Middlebury State AP, Middlebu

Weather History for K6B0 - March, 2014

Change the Weather History Date:

Sunday, March 16, 2014

  Actual Average (KRUT) Record (KRUT)
Temperature  
Mean Temperature 18 °F -  
Max Temperature 29 °F 44 °F 83 °F (1990)
Min Temperature 5 °F 20 °F -2 °F (1980)
Degree Days  
Heating Degree Days 48    
Moisture  
Dew Point 2 °F    
Average Humidity 53    
Maximum Humidity 92    
Minimum Humidity 39    
Precipitation  
Precipitation 0.00 in - - ()
Sea Level Pressure  
Sea Level Pressure 30.14 in    
Wind  
Wind Speed 7 mph (WNW)    
Max Wind Speed 13 mph    
Max Gust Speed 18 mph    
Visibility 10 miles    
Events      
Averages and records for this station are not official NWS values.
T = Trace of Precipitation, MM = Missing Value Source: NWS Daily Summary

Daily Weather History Graph

Daily Weather History Graph

Search for Another Location

Airport or City:

Trip Planner

Search our weather history database for the weather conditions in past years. The results will help you decide how hot, cold, wet, or windy it might be!

Date:

Astronomy

Mar. 16, 2014 Rise Set
Actual Time 7:02 AM EDT 6:59 PM EDT
Civil Twilight 6:34 AM EDT 7:28 PM EDT
Nautical Twilight 6:00 AM EDT 8:02 PM EDT
Astronomical Twilight 5:26 AM EDT 8:36 PM EDT
Moon 7:16 PM EDT (3/16) 6:44 AM EDT (3/16)
Length of Visible Light 12h 54m
Length of Day
11h 56m
Full, 100% of the Moon is Illuminated
Mar 16
Full
Mar 16
Full
Mar 23
Last Quarter
Mar 30
New
Apr 7
First Quarter

Hourly Weather History & Observations

Time (EDT) Temp. Windchill Dew Point Humidity Pressure Visibility Wind Dir Wind Speed Gust Speed Precip Events Conditions
12:15 AM 30.2 °F - 28.2 °F 92% 29.90 in 10.0 mi Calm Calm - N/A   Overcast
12:35 AM 30.2 °F 21.9 °F 19.8 °F 65% 29.91 in 10.0 mi WSW 9.2 mph - N/A   Overcast
12:55 AM 29.1 °F 22.1 °F 17.2 °F 61% 29.92 in 10.0 mi WSW 6.9 mph 17.3 mph N/A   Overcast
1:15 AM 28.4 °F 22.2 °F 16.5 °F 61% 29.93 in 10.0 mi West 5.8 mph - N/A   Overcast
1:35 AM 26.8 °F 18.5 °F 21.2 °F 79% 29.94 in 10.0 mi West 8.1 mph - N/A   Overcast
2:15 AM 24.8 °F 14.0 °F 16.9 °F 72% 29.96 in 10.0 mi WNW 11.5 mph - N/A   Overcast
2:35 AM 24.6 °F 15.1 °F 15.1 °F 67% 29.97 in 10.0 mi WNW 9.2 mph 17.3 mph N/A   Overcast
2:55 AM 24.4 °F 15.6 °F 14.9 °F 67% 29.98 in 10.0 mi WNW 8.1 mph 16.1 mph N/A   Overcast
3:20 AM 23.0 °F 12.4 °F 14.2 °F 69% 29.98 in 10.0 mi WNW 10.4 mph - N/A   Overcast
3:35 AM 22.6 °F 11.9 °F 13.1 °F 67% 29.99 in 10.0 mi NW 10.4 mph 16.1 mph N/A   Overcast
3:55 AM 22.1 °F 12.0 °F 13.1 °F 68% 30.00 in 10.0 mi WNW 9.2 mph 16.1 mph N/A   Overcast
4:15 AM 21.7 °F 14.3 °F 13.6 °F 71% 30.01 in 10.0 mi WNW 5.8 mph - N/A   Overcast
4:35 AM 21.4 °F 15.1 °F 12.2 °F 68% 30.02 in 10.0 mi West 4.6 mph - N/A   Overcast
5:15 AM 19.8 °F 10.8 °F 5.7 °F 55% 30.05 in 10.0 mi West 6.9 mph - N/A   Mostly Cloudy
5:35 AM 19.2 °F 9.3 °F 5.2 °F 54% 30.06 in 10.0 mi WNW 8.1 mph - N/A   Overcast
5:55 AM 18.9 °F 9.8 °F 4.3 °F 53% 30.07 in 10.0 mi WNW 6.9 mph - N/A   Overcast
6:15 AM 18.3 °F 9.1 °F 2.5 °F 50% 30.07 in 10.0 mi West 6.9 mph - N/A   Overcast
6:35 AM 17.6 °F 6.4 °F 3.9 °F 55% 30.08 in 10.0 mi NW 9.2 mph - N/A   Overcast
6:55 AM 16.7 °F 5.3 °F 3.4 °F 56% 30.09 in 10.0 mi WNW 9.2 mph - N/A   Overcast
7:15 AM 15.8 °F 4.2 °F 2.3 °F 55% 30.11 in 10.0 mi WNW 9.2 mph - N/A   Scattered Clouds
7:35 AM 14.9 °F 2.3 °F 2.3 °F 57% 30.12 in 10.0 mi WNW 10.4 mph - N/A   Scattered Clouds
8:15 AM 14.7 °F 0.7 °F 0.5 °F 53% 30.14 in 10.0 mi NW 12.7 mph 18.4 mph N/A   Mostly Cloudy
8:35 AM 14.7 °F 2.1 °F 0.7 °F 54% 30.14 in 10.0 mi WNW 10.4 mph 17.3 mph N/A   Mostly Cloudy
8:55 AM 15.1 °F 1.8 °F 2.3 °F 57% 30.14 in 10.0 mi NW 11.5 mph 16.1 mph N/A   Overcast
9:15 AM 14.9 °F 1.6 °F 3.2 °F 60% 30.16 in 10.0 mi NW 11.5 mph 18.4 mph N/A   Overcast
9:35 AM 15.3 °F 2.8 °F 1.6 °F 55% 30.16 in 10.0 mi NNW 10.4 mph 17.3 mph N/A   Overcast
9:55 AM 14.9 °F 4.0 °F 1.2 °F 55% 30.18 in 10.0 mi NW 8.1 mph 18.4 mph N/A   Overcast
10:15 AM 14.9 °F 2.3 °F 2.5 °F 58% 30.19 in 10.0 mi WNW 10.4 mph - N/A   Overcast
10:35 AM 14.9 °F 2.3 °F 3.0 °F 59% 30.19 in 10.0 mi WNW 10.4 mph - N/A   Overcast
10:55 AM 15.4 °F 3.8 °F 2.1 °F 56% 30.19 in 10.0 mi WNW 9.2 mph - N/A   Overcast
11:15 AM 15.6 °F 2.5 °F 2.1 °F 55% 30.19 in 10.0 mi West 11.5 mph - N/A   Overcast
11:35 AM 15.8 °F 4.2 °F 1.9 °F 54% 30.20 in 10.0 mi WNW 9.2 mph 16.1 mph N/A   Overcast
11:55 AM 15.8 °F 5.1 °F 0.5 °F 51% 30.19 in 10.0 mi WNW 8.1 mph - N/A   Overcast
12:15 PM 16.7 °F 4.5 °F 0.3 °F 49% 30.19 in 10.0 mi WNW 10.4 mph - N/A   Overcast
12:35 PM 16.9 °F 4.8 °F -0.0 °F 48% 30.19 in 10.0 mi West 10.4 mph - N/A   Overcast
12:55 PM 17.4 °F 7.1 °F 0.3 °F 47% 30.19 in 10.0 mi West 8.1 mph - N/A   Overcast
1:15 PM 17.6 °F 6.4 °F 1.2 °F 49% 30.19 in 10.0 mi WNW 9.2 mph - N/A   Overcast
1:35 PM 17.8 °F 9.6 °F 0.7 °F 47% 30.19 in 10.0 mi West 5.8 mph - N/A   Overcast
1:55 PM 18.0 °F 8.7 °F 0.5 °F 47% 30.18 in 10.0 mi WNW 6.9 mph - N/A   Overcast
2:15 PM 18.0 °F 5.4 °F -0.0 °F 45% 30.18 in 10.0 mi WNW 11.5 mph 17.3 mph N/A   Overcast
2:55 PM 18.5 °F 7.5 °F 0.5 °F 45% 30.18 in 10.0 mi WNW 9.2 mph - N/A   Overcast
3:15 PM 18.3 °F 8.2 °F -0.0 °F 45% 30.18 in 10.0 mi NW 8.1 mph - N/A   Overcast
3:35 PM 18.5 °F 7.5 °F -0.4 °F 44% 30.18 in 10.0 mi WNW 9.2 mph - N/A   Overcast
3:55 PM 18.1 °F 6.3 °F -1.5 °F 42% 30.18 in 10.0 mi NNW 10.4 mph 16.1 mph N/A   Overcast
4:15 PM 18.3 °F 10.2 °F -1.7 °F 42% 30.18 in 10.0 mi WNW 5.8 mph - N/A   Overcast
4:35 PM 18.5 °F 9.3 °F -2.0 °F 41% 30.19 in 10.0 mi NW 6.9 mph - N/A   Mostly Cloudy
4:55 PM 18.7 °F 9.5 °F -2.6 °F 39% 30.19 in 10.0 mi West 6.9 mph - N/A   Scattered Clouds
5:15 PM 18.1 °F 7.9 °F -2.6 °F 40% 30.19 in 10.0 mi WNW 8.1 mph - N/A   Mostly Cloudy
5:35 PM 17.8 °F 7.5 °F -2.6 °F 41% 30.19 in 10.0 mi WNW 8.1 mph - N/A   Overcast
5:55 PM 17.1 °F 4.3 °F -2.9 °F 41% 30.19 in 10.0 mi NW 11.5 mph 18.4 mph N/A   Scattered Clouds
6:15 PM 16.7 °F 3.8 °F -2.9 °F 42% 30.19 in 10.0 mi WNW 11.5 mph - N/A   Clear
6:35 PM 16.3 °F 4.9 °F -4.0 °F 41% 30.19 in 10.0 mi WNW 9.2 mph - N/A   Scattered Clouds
6:55 PM 15.3 °F 5.4 °F -4.4 °F 42% 30.18 in 10.0 mi WNW 6.9 mph - N/A   Clear
7:15 PM 15.1 °F 5.2 °F -5.3 °F 40% 30.17 in 10.0 mi NW 6.9 mph - N/A   Clear
7:35 PM 14.7 °F 2.9 °F -5.4 °F 41% 30.19 in 10.0 mi NW 9.2 mph - N/A   Clear
7:55 PM 13.3 °F 4.2 °F -5.3 °F 44% 30.21 in 10.0 mi NW 5.8 mph - N/A   Clear
8:15 PM 13.1 °F 1.8 °F -5.6 °F 43% 30.21 in 10.0 mi WNW 8.1 mph - N/A   Clear
8:35 PM 12.0 °F 1.5 °F -5.6 °F 45% 30.21 in 10.0 mi WNW 6.9 mph - N/A   Clear
8:55 PM 12.6 °F 1.1 °F -5.8 °F 44% 30.22 in 10.0 mi NW 8.1 mph - N/A   Clear
9:15 PM 12.4 °F 0.0 °F -6.0 °F 44% 30.22 in 10.0 mi WNW 9.2 mph - N/A   Clear
9:35 PM 12.0 °F 1.5 °F -6.2 °F 44% 30.22 in 10.0 mi NW 6.9 mph - N/A   Clear
9:55 PM 11.8 °F 0.3 °F -7.2 °F 42% 30.23 in 10.0 mi WNW 8.1 mph - N/A   Clear
10:15 PM 11.3 °F 3.3 °F -7.6 °F 43% 30.23 in 10.0 mi West 4.6 mph - N/A   Clear
10:35 PM 9.9 °F - -7.8 °F 45% 30.24 in 10.0 mi Calm Calm - N/A   Clear
10:55 PM 7.3 °F - -7.1 °F 52% 30.23 in 10.0 mi Calm Calm - N/A   Clear
11:15 PM 6.6 °F - -6.9 °F 54% 30.23 in 10.0 mi Calm Calm - N/A   Clear
11:35 PM 5.5 °F - -6.0 °F 59% 30.22 in 10.0 mi Calm Calm - N/A   Clear
11:55 PM 6.1 °F - -6.2 °F 57% 30.22 in 10.0 mi Calm Calm - N/A   Clear